Regional Weather Roundup
Issued by NWS

Home | Current Version | Previous Version | Text Only | Print | Product List | Glossary On
Versions: 1 2 3 4 5 6 7 8 9 10 11 12 13 14 15 16 17 18 19 20 21 22 23 24 25 26 27 28 29 30 31 32 33 34 35 36 37 38 39 40 41 42 43 44 45 46 47 48 49 50
000
ASUS43 KMPX 240110
RWRMN
WEATHER ROUNDUP FOR MINNESOTA
NATIONAL WEATHER SERVICE TWIN CITIES/CHANHASSEN MN
700 PM CST FRI FEB 23 2018


NOTE: "FAIR" INDICATES FEW OR NO CLOUDS BELOW 12,000 FEET WITH NO
SIGNIFICANT WEATHER AND/OR OBSTRUCTIONS TO VISIBILITY. N/A MEANS
CURRENT SKY AND/OR WEATHER CONDITIONS ARE NOT AVAILABLE.

MNZ060>063-068>070-240200-
   Twin Cities Metro

CITY           SKY/WX    TMP DP  RH WIND       PRES   REMARKS
TWIN CITIES    FAIR      25  20  81 SW6       30.28R WCI  18
ST PAUL        FAIR      25  19  78 SW6       30.29R WCI  18
CRYSTAL        FAIR      26  19  74 SW6       30.26R WCI  19
BLAINE         CLEAR     28  21  74 SW5       30.25R WCI  23
LAKEVILLE      FAIR      18  18 100 W6        30.28S WCI   9
EDEN PRAIRIE   FAIR      21  17  84 W7        30.27R WCI  12
SOUTH ST PAUL  FAIR      25  19  80 SW5       30.28R WCI  19
LAKE ELMO      FAIR      25  21  86 SW7       30.27S WCI  17
$$
MNZ001>005-007-008-013>017-022>024-027-028-240200-
   Northwest Minnesota

CITY           SKY/WX    TMP DP  RH WIND       PRES   REMARKS
BEMIDJI        FAIR      12   3  67 W6        30.18R WCI   3
HALLOCK        FAIR       7   3  85 S8        30.19R WCI  -6
ROSEAU         FAIR      12   7  79 SW7       30.17R WCI   2
WARROAD        FAIR      10   7  85 SW9       30.16R WCI  -2
THIEF RVR FALL FAIR       7   3  84 SW6       30.21R WCI  -3
CROOKSTON      FAIR       5   1  85 SW8       30.24R WCI  -8
FOSSTON        FAIR       1  -4  78 SW8       30.21S WCI -12
DETROIT LAKES  FAIR      12   7  79 CALM      30.24R
MOORHEAD       FAIR       9   3  78 SW6       30.28R WCI  -1
PARK RAPIDS    FAIR       8   0  69 W8        30.20R WCI  -4
MAHNOMEN       FAIR      -1  -4  85 S9        30.23R WCI -16
$$
MNZ006-009>011-018-025>026-240200-
   North Central Minnesota

CITY           SKY/WX    TMP DP  RH WIND       PRES   REMARKS
BAUDETTE       FAIR      15   4  61 W8        30.14R WCI   4
FLAG ISLAND    FAIR      19   0  42 W9        30.12R WCI   9
INTL FALLS     FAIR      22  10  60 W8        30.13R WCI  12
WASKISH        FAIR      10   5  79 SW12      30.18R WCI  -4
LONGVILLE      FAIR      21  14  73 SW3       30.20R
GRAND RAPIDS   FAIR      16  13  88 W3        30.18R
CRANE LAKE     FAIR      21  19  93 CALM      30.13S
ORR            FAIR      21  16  79 W3        30.10R
COOK             N/A     21  19  93 SW5       30.13R WCI  15
WALKER         FAIR      19   6  59 W8        30.19R WCI   8
$$
MNZ012-019>021-037-240200-
   Northeast Minnesota

CITY           SKY/WX    TMP DP  RH WIND       PRES   REMARKS
DULUTH         CLOUDY    29  20  69 W12       30.15R WCI  19
ELY            CLOUDY    25  19  80 W6        30.12R WCI  18
HIBBING        FAIR      24  18  77 SW5       30.14R WCI  18
EVELETH        MOCLDY    27  21  80 W7        30.15R WCI  19
DULUTH HARBOR  CLOUDY    34  25  69 SW5       30.20R WCI  30
TWO HARBORS    CLOUDY    32  25  74 W8        30.14R WCI  25
SILVER BAY     CLOUDY    28  23  80 W3        30.13R
GRAND MARAIS     N/A     29  21  72 VRB5      30.15R WCI  24
G MARAIS ARPRT CLOUDY    23  16  74 W5        30.09R WCI  17
$$
MNZ029>031-032-039>041-046>048-054>057-064-240200-
   West Central Minnesota

CITY           SKY/WX    TMP DP  RH WIND       PRES   REMARKS
FERGUS FALLS   FAIR       7   3  85 CALM      30.29R
WHEATON        CLOUDY    10   5  79 CALM      30.33R
MORRIS         CLOUDY     5   1  85 W3        30.29R
ALEXANDRIA     FAIR      10   6  84 W5        30.26R WCI   2
ELBOW LAKE     FAIR       6   4  91 N5        30.28R WCI  -3
WADENA         FAIR      10   5  79 W6        30.24R WCI   1
GLENWOOD       FAIR       9   5  85 SW9       30.27R WCI  -5
APPLETON       CLOUDY    10   3  72 CALM      30.31R
BENSON         CLOUDY     5   1  85 NW6       30.31S WCI  -6
ORTONVILLE     CLOUDY    12   7  79 CALM      30.30R
MADISON        CLOUDY    16  10  79 W6        30.31R WCI   7
WILLMAR        FAIR      12  10  92 W6        30.31S WCI   3
$$
MNZ033>034-036-042>043-049>051-058-059-240200-
   Central Minnesota

CITY           SKY/WX    TMP DP  RH WIND       PRES   REMARKS
ST CLOUD       FAIR      19  15  84 W9        30.26R WCI   8
SAUK CENTRE    FAIR      13   9  85 S3        30.27R
PAYNESVILLE    FAIR      14  13  93 W7        30.28R WCI   4
AITKIN         FAIR      25  18  74 SW6       30.18R WCI  18
PINE RIVER     FAIR      19  10  68 W5        30.24R WCI  13
BRAINERD       FAIR      21  12  68 W9        30.21R WCI  11
STAPLES        FAIR      10   7  85 W6        30.24R WCI   1
LONG PRAIRIE   FAIR      14  10  85 S5        30.25R WCI   6
LITTLE FALLS   FAIR      21  12  68 W8        30.26R WCI  12
LITCHFIELD     FAIR      18  16  93 W5        30.29R WCI  11
BUFFALO        FAIR      22  17  81 W6        30.28R WCI  15
MAPLE LAKE     FAIR      22  19  87 W7        30.28R WCI  14
HUTCHINSON     FAIR      14  12  91 W7        30.30R WCI   4
$$
MNZ037-044-045-052-053-240200-
   East Central Minnesota

CITY           SKY/WX    TMP DP  RH WIND       PRES   REMARKS
PRINCETON      FAIR      27  19  74 SW7       30.25R WCI  19
CAMBRIDGE        N/A     28  19  69 SW5       30.25R WCI  23
RUSH CITY      FAIR      27  20  74 W5        30.23R WCI  22
MOOSE LAKE     CLOUDY    32  23  69 W5        30.18R WCI  27
HINCKLEY       FAIR      27  21  80 SW5       30.21R WCI  21
CLOQUET        CLOUDY    30  21  69 W7        30.16R WCI  23
MCGREGOR       FAIR      30  21  69 W3        30.18R
$$
MNZ071>073-080-081-089-090-097-098-240200-
   Southwest Minnesota

CITY           SKY/WX    TMP DP  RH WIND       PRES   REMARKS
MONTEVIDEO     CLOUDY    16   9  73 N3        30.31R
GRANITE FALLS  CLEAR     11   9  91 W6        30.32S WCI   2
CANBY          CLEAR     17  14  90 SW7       30.31R WCI   7
MARSHALL       CLEAR     12   9  87 W9        30.30R WCI   0
REDWOOD FALLS  CLEAR     19  17  92 W5        30.31R WCI  12
OLIVIA         CLOUDY    21  18  86 W6        30.30R WCI  14
PIPESTONE      CLOUDY    18  16  93 NW8       30.28S WCI   7
WORTHINGTON    PTCLDY    16  14  92 W9        30.28S WCI   4
JACKSON        CLEAR     18  14  86 W7        30.28S WCI   8
TRACY          CLEAR     19  17  93 W7        30.29R WCI   9
SLAYTON        CLOUDY    19  18  95 W14       30.28S WCI   6
$$
MNZ065>067-074>077-082>085-091>093-240200-
   South Central Minnesota

CITY           SKY/WX    TMP DP  RH WIND       PRES   REMARKS
MANKATO        CLOUDY    22  19  89 W7        30.31R WCI  13
NEW ULM        CLEAR     12  10  92 SW5       30.31R WCI   4
ST JAMES       FOG       10  10 100 W5        30.32R VSB 3/4 WCI   2
FAIRMONT       CLEAR     16  13  88 N5        30.29F WCI   9
GLENCOE        FAIR      19  17  90 W7        30.29R WCI  10
FARIBAULT      FAIR      19  18  93 CALM      30.29S
OWATONNA       FAIR      12  10  92 W6        30.28S FOG     WCI   3
WASECA         FAIR      14  12  92 W7        30.31R WCI   4
ALBERT LEA     FAIR      19  16  86 CALM      30.28S
$$
MNZ078>079-086>088-094>096-240200-
   Southeast Minnesota

CITY           SKY/WX    TMP DP  RH WIND       PRES   REMARKS
ROCHESTER      FAIR      17  15  92 W9        30.26R FOG     WCI   6
RED WING       FAIR      25  16  68 W6        30.29R WCI  18
STANTON        FAIR      16  13  88 SW6       30.29R WCI   7
DODGE CENTER   FAIR      18  16  93 W7        30.26S WCI   8
WINONA         CLOUDY    27  21  80 W5        30.29R WCI  21
AUSTIN         FAIR      19  16  86 W6        30.28S WCI  11
PRESTON        FAIR      19  16  88 W6        30.27S WCI  11
$$
ABBREVIATIONS USED IN REMARKS
   TC - TEMPERATURES IN CELSIUS
  WCI - WIND CHILL INDEX
   HX - HEAT INDEX
  VSB - VISIBILITY
$$




USA.gov is the U.S. government's official web portal to all federal, state and local government web resources and services.